Location: ?????
(42.2640°N, 43.4211°E)
Time: 15:17:41
(UTC+00:00)

Cosmos 1544 Rocket - Pass Details

Date: 07 August 2020
Orbit: 603 x 632 km, 82.5° (Epoch: 20 September)

Event Time Altitude Azimuth Distance (km) Brightness Sun altitude
Exits shadow 00:42:51 22° 237° (WSW) 1,370 4.7 -14.0°
Maximum altitude 00:44:56 34° 284° (WNW) 1,049 4.4 -13.7°
Drops below altitude 10° 00:49:02 10° 350° (N) 2,023 6.6 -13.1°
Sets 00:51:28 0° 360° (N) 2,935 7.6 -12.7°
